User: anonymous   Login
Location: Unspecified
(0.0000°N, 0.0000°E)
Time: 11:53:58
(UTC+02:00)
Language:

CZ-4 R/B - Orbit

View from above orbital plane
View from above orbital plane
View from above satellite
View from above satellite

Ground track
Ground track

The orbit data is extracted from the following two-line orbital elements,

1 28059U 03049C   16121.52730483  .00000026  00000-0  18161-4 0  9992
2 28059  98.6191 351.8569 0051300  65.5383 356.3586 14.52438168663773
Epoch (UTC): 30 April 2016 12:39:19
Eccentricity: 0.0051300
inclination: 98.6191°
perigee height: 681 km
apogee height: 754 km
right ascension of ascending node: 351.8569°
argument of perigee: 65.5383°
revolutions per day: 14.52438168
mean anomaly at epoch: 356.3586°
orbit number at epoch: 66377

The dashed part of the orbit path shows where the satellite is in the earth's shadow,  

DLR